Location: Betpouey
(42.8833°N, 0.0333°E)
Time: 07:17:27
(UTC+00:00)

Cosmos 2228 Rocket - Pass Details

Date: 01 December 2020
Orbit: 618 x 652 km, 82.5° (Epoch: 17 January)

Event Time Altitude Azimuth Distance (km) Brightness Sun altitude
Rises 17:25:45 0° 154° (SSE) 2,950 6.5 -10.7°
Reaches altitude 10° 17:28:21 10° 140° (SE) 2,040 5.5 -11.1°
Maximum altitude 17:31:54 23° 88° (E) 1,363 4.2 -11.7°
Enters shadow 17:34:29 15° 45° (NE) 1,752 4.8 -12.2°
